To NAV CANADA Home Page Login to a new session Search on AWWS site Feedback and Comments Disclaimer Vers la page française équivalente Tips FAQ What's new on the site To the Forecasts and Observations / NOTAM section To "File a Flight Plan" website Publications and other links Update of the User's profile FIC Telephone Numbers My Weather Data Folder Route Weather Data Regional Weather Data Local Weather Data To the Forecasts and Observations / NOTAM section
Request Generated 07/29/2016 at 13:59:17 UTC . Weather information available at that time is displayed.

METAR/TAF

PAULATUK/PAULATUK (NORA ALIQATCHIALUK RUBEN)/NT    

METAR CYPC 291300Z 18014KT 15SM BKN032 17/10 A2967 RMK SC7 26.5/13.8
CU ASOCTD SLP048 DENSITY ALT 500FT=
LWIS CYPC 291200Z AUTO 13012KT 16/10 A2968=
LWIS CYPC 291100Z AUTO 17014G22KT 16/09 A2968=

*** REMARK        : Forecast period has ended; this was the last TAF issued
*** REMARQUE : La période de prévision est échue; ceci était le dernier TAF qui a été émis
TAF CYPC 281838Z 2819/2823 19018G28KT P6SM SCT030 BKN090 TEMPO
2819/2823 P6SM -SHRA BKN030 BKN090
RMK NXT FCST WILL BE ISSUED AT 291445Z=
Your time UTC time
Weather data provided by Environment Canada and NAV CANADA